Location: Balayungan
(14.2533°N, 120.7900°E)
Time: 17:30:53
(UTC+00:00)

Daily predictions for brighter satellites

Satellite Brightness Start Highest point End
(mag) Time Altitude Azimuth Time Altitude Azimuth Time Altitude Azimuth
USA 59 Rocket 3.0 12:09:23 10° WNW 12:13:52 25° WSW 12:19:37 10° S
Cosmos 1980 Rocket 3.9 12:22:41 10° NW 12:33:46 - S 12:25:25 25° WNW
Cosmos 1833 Rocket 4.0 20:01:36 33° SSE 20:01:36 33° SSE 20:04:38 10° SSE
SJ 16-02 3.5 20:04:36 10° SSE 20:07:58 23° E 20:11:20 10° NE
USA 215 4.2 20:08:43 10° ESE 20:14:47 41° NE 20:17:09 31° N
Cosmos 2154 Rocket 4.0 20:14:22 10° S 20:20:42 81° E 20:26:58 10° N
SL-16 R/B 3.1 20:41:24 10° S 20:46:16 37° WSW 20:46:16 37° WSW
OAO 1 4.4 20:48:23 55° NW 20:49:36 82° NNE 20:55:04 10° ESE
Cosmos 2369 Rocket 2.1 20:45:46 10° SSW 20:51:25 88° ESE 20:57:07 10° NNE
NOSS 3-2 (A) 3.7 20:53:30 32° N 20:53:30 32° N 20:56:26 10° N
Cosmos 1954 Rocket 3.9 20:52:08 10° S 20:57:16 82° E 21:02:24 10° NNE
FUSE 4.3 20:55:27 27° SW 20:58:11 59° SSE 21:03:23 10° ENE
Cosmos 2251 Rocket 3.4 20:53:33 10° SSW 20:58:49 63° WNW 21:04:05 10° N
Ariane H10+ 4.3 20:53:40 17° WSW 20:59:09 27° SSW 21:04:29 10° SE
SL-4 R/B 3.6 20:56:40 10° S 20:59:36 28° SE 21:02:40 10° ENE
IRS-1D 3.5 20:59:07 10° N 21:04:19 65° WNW 21:09:27 10° SSW
Cosmos 371 Rocket 3.3 21:03:35 10° SSW 21:08:15 52° WNW 21:12:55 10° N
Centaur AC-64 2.8 21:08:08 28° WNW 21:11:44 83° SSW 21:14:36 10° ESE
Palapa 6 Rocket 2.5 21:12:31 42° WNW 21:13:43 84° NNE 21:17:26 10° ESE
Cosmos 1484 Rocket 4.5 21:10:42 10° NE 21:13:47 31° E 21:16:54 10° SSE
Cosmos 962 Rocket 4.4 21:08:54 10° S 21:15:00 82° W 21:21:08 10° N
Mugunghwa Rocket 4.0 21:11:10 20° WSW 21:15:50 86° NNW 21:22:46 10° ENE
Okean 3 3.6 21:14:48 33° NW 21:16:03 44° W 21:19:51 10° SSW
Atlas Centaur 2 3.7 21:14:18 13° NNW 21:16:52 18° NNE 21:20:41 10° ENE
Cosmos 304 Rocket 4.2 21:13:04 10° SW 21:17:23 35° WNW 21:21:43 10° N
Ariane H10+ 2.8 21:15:55 15° SW 21:17:25 23° S 21:21:15 10° ESE
UNK 4.3 21:14:20 10° SSW 21:18:26 34° W 21:19:57 27° WNW
ATLAS 2AS CENTAUR R/B 3.6 21:13:01 10° N 21:19:29 47° ENE 21:26:02 10° SE
Cosmos 2297 3.8 21:14:04 10° SSW 21:19:29 50° WNW 21:24:55 10° N
Cosmos 1190 Rocket 4.3 21:16:02 10° SW 21:20:53 39° WNW 21:25:42 10° N
ASC 2 Rocket 4.2 21:19:16 21° NW 21:23:15 46° N 21:27:53 10° E
Meteor 1-22 Rocket 4.4 21:20:36 10° SSW 21:26:33 58° W 21:32:25 10° N
SKYMED 2 3.8 21:22:42 10° SSE 21:27:01 71° ENE 21:31:19 10° N
Ariane H10 3.5 21:23:02 12° WSW 21:28:38 32° SSW 21:31:25 10° SE
Cosmos 2263 4.3 21:23:14 10° SSW 21:28:51 55° WNW 21:34:28 10° N
NOSS 3-2 (C) 2.6 21:24:48 10° SSW 21:29:28 78° WNW 21:34:20 10° NNE
Cosmos 1241 Rocket 4.5 21:23:10 10° SSW 21:29:28 61° WNW 21:35:41 10° NNE
Okean 1-7 4.0 21:25:32 10° N 21:29:35 47° E 21:33:38 10° SSE
USA 307 3.7 21:30:30 10° NNW 21:34:09 37° NE 21:37:14 10° ESE
Cosmos 1470 Rocket 3.4 21:30:10 10° SSW 21:34:26 66° W 21:38:39 10° N
Cosmos 676 Rocket 4.1 21:31:47 10° SSW 21:36:46 50° WNW 21:41:45 10° N
Cosmos 1953 2.2 21:35:47 10° SSW 21:39:17 48° W 21:42:48 10° N
Cosmos 2228 Rocket 3.9 21:35:32 10° N 21:39:48 54° E 21:44:05 10° SSE
Meteor 1-15 Rocket 4.3 21:35:33 10° SSW 21:41:12 58° W 21:46:57 10° N
IGS 5A 3.2 21:38:10 10° N 21:42:05 66° WNW 21:46:01 10° SSW
Cosmos 1933 Rocket 4.5 21:38:09 10° S 21:42:26 53° E 21:46:44 10° NNE
ATLAS CENTAUR R/B 2.1 21:42:28 16° W 21:43:08 17° WSW 21:45:07 10° SSW
SMAP 4.1 21:40:37 10° NNE 21:45:07 49° ESE 21:49:35 10° S
SJ 16-02 2.9 21:43:44 10° WSW 21:45:52 14° WNW 21:47:59 10° NW
GPS 2-15 Rocket1 3.1 21:42:52 10° WSW 21:47:38 87° N 21:52:26 10° ENE
GPS 2-12 Rocket1 3.2 21:45:24 13° W 21:49:06 58° SSW 21:53:19 10° ESE
Cosmos 2082 Rocket 2.4 21:46:28 10° NNW 21:52:00 55° WSW 21:57:33 10° S
SeaSat 1 3.2 21:47:38 10° NNE 21:52:25 57° ESE 21:57:12 10° S
Cosmos 2366 rocket 4.1 21:48:03 10° SSW 21:54:00 52° W 22:00:02 10° N
Cosmos 44 4.0 21:50:37 10° NW 21:55:35 40° WSW 22:00:26 10° S
USA 215 4.1 21:51:53 10° S 21:57:35 32° SW 22:03:19 10° WNW
CORIOLIS 4.4 21:52:18 10° NNE 21:57:41 76° ESE 22:03:03 10° S
Cosmos 332 Rocket 3.7 21:54:17 10° SSW 21:58:58 67° WNW 22:03:40 10° N
Cosmos 1862 Rocket 3.9 21:58:08 10° NNW 22:02:11 43° W 22:06:14 10° SSW
Meteor 1-16 Rocket 4.2 21:58:53 10° SSW 22:04:22 64° W 22:09:41 10° N
